Location: Newark
(44.3681°N, 100.3364°W)
Time: 08:25:13
(UTC+00:00)

Vanguard 1 - Pass Details

Date: 22 February 2020
Orbit: 649 x 3833 km, 34.2° (Epoch: 05 April)

Event Time Altitude Azimuth Distance (km) Brightness Sun altitude
Rises 19:40:42 0° 275° (W) 6,732 14.4 34.5°
Reaches altitude 10° 19:46:20 10° 268° (W) 5,177 14.0 34.2°
Maximum altitude 19:57:42 34° 211° (SSW) 2,486 14.5 33.6°
Drops below altitude 10° 20:04:32 10° 149° (SSE) 3,068 13.2 33.2°
Sets 20:06:59 0° 139° (SE) 3,746 13.4 33.1°
